Location: Kawakawa
(35.3830°S, 174.0670°E)
Time: 16:04:44
(UTC+13:00)

Vanguard 1 - All Passes

Search period start: 13 December 2019 00:00
Search period end: 23 December 2019 00:00
Orbit: 651 x 3832 km, 34.3° (Epoch: 11 December)

Date Brightness Start Highest point End Pass type
(mag) Time Alt. Az. Time Alt. Az. Time Alt. Az.
13 Dec - 00:58:50 10° W 01:07:43 26° NNW 01:21:06 10° NNE visible
13 Dec - 16:01:25 10° NNW 16:04:46 20° NNE 16:08:05 10° ENE daylight
13 Dec - 18:19:44 10° WNW 18:24:14 69° NNE 18:30:29 10° E daylight
13 Dec - 20:38:59 10° W 20:44:37 76° N 20:54:34 10° ENE daylight
13 Dec - 22:58:32 10° W 23:06:05 44° NNW 23:19:26 10° NE visible
14 Dec - 01:21:19 10° WNW 01:29:09 19° NNW 01:39:52 10° N visible
14 Dec - 16:21:33 10° NW 16:25:33 29° NNE 16:29:37 10° E daylight
14 Dec - 18:40:37 10° W 18:45:12 78° N 18:51:47 10° E daylight
14 Dec - 20:59:54 10° W 21:05:41 67° NNW 21:15:59 10° ENE visible
14 Dec - 23:19:48 10° W 23:27:19 35° NNW 23:39:58 10° NE visible
15 Dec - 01:45:26 10° NW 01:50:38 13° NNW 01:56:51 10° NNW visible
15 Dec - 16:42:04 10° NW 16:46:22 42° NNE 16:50:54 10° E daylight
15 Dec - 19:01:32 10° W 19:06:11 82° N 19:13:07 10° E daylight
15 Dec - 21:20:50 10° W 21:26:46 56° NNW 21:37:14 10° ENE visible
15 Dec - 23:41:21 10° W 23:48:36 27° NNW 23:59:58 10° NNE visible
16 Dec - 14:44:27 10° N 14:47:34 15° NNE 14:50:20 10° ENE daylight
16 Dec - 17:02:49 10° WNW 17:07:15 56° NNE 17:12:04 10° E daylight
16 Dec - 19:22:26 10° W 19:27:11 79° N 19:34:27 10° E daylight
16 Dec - 21:41:50 10° W 21:47:51 46° NNW 21:58:16 10° NE visible
17 Dec - 00:03:24 10° WNW 00:09:57 20° NNW 00:19:17 10° NNE visible
17 Dec - 15:04:13 10° NNW 15:08:30 23° NNE 15:12:06 10° ENE daylight
17 Dec - 17:23:42 10° WNW 17:28:09 70° N 17:33:13 10° E daylight
17 Dec - 19:43:21 10° W 19:48:12 71° N 19:55:46 10° ENE daylight
17 Dec - 22:02:59 10° W 22:08:59 36° NNW 22:18:58 10° NE visible
18 Dec - 00:26:36 10° NW 00:31:21 14° NNW 00:37:15 10° N visible
18 Dec - 15:24:36 10° NW 15:29:23 33° NNE 15:33:26 10° E daylight
18 Dec - 17:44:39 10° W 17:49:06 78° N 17:54:22 10° E daylight
18 Dec - 20:04:17 10° W 20:09:11 60° NNW 20:16:59 10° ENE daylight
18 Dec - 22:24:20 10° W 22:30:10 27° NNW 22:39:15 10° NNE visible
19 Dec - 13:26:36 10° N 13:30:07 14° NNE 13:33:02 10° ENE daylight
19 Dec - 15:45:17 10° NW 15:50:18 46° NNE 15:54:34 10° E daylight
19 Dec - 18:05:38 10° W 18:10:04 80° N 18:15:33 10° E daylight
19 Dec - 20:25:15 10° W 20:30:11 48° NNW 20:38:02 10° NE daylight
19 Dec - 22:46:07 10° WNW 22:51:24 20° NNW 22:58:55 10° NNE visible
20 Dec - 13:46:04 10° NNW 13:51:11 21° NNE 13:55:03 10° ENE daylight
20 Dec - 16:06:11 10° WNW 16:11:12 60° NNE 16:15:37 10° E daylight
20 Dec - 18:26:36 10° W 18:31:02 75° N 18:36:43 10° ENE daylight
20 Dec - 20:46:19 10° W 20:51:14 37° NNW 20:58:51 10° NE daylight
20 Dec - 23:08:51 10° NW 23:12:42 14° NNW 23:17:29 10° N visible
21 Dec - 14:06:16 10° NW 14:12:12 30° NNE 14:16:28 10° E daylight
21 Dec - 16:27:11 10° WNW 16:32:09 72° N 16:36:38 10° E daylight
21 Dec - 18:47:34 10° W 18:52:00 65° N 18:57:50 10° ENE daylight
21 Dec - 21:07:35 10° W 21:12:18 27° NNW 21:19:18 10° NNE visible
22 Dec - 12:07:49 10° N 12:12:21 15° NNE 12:15:56 10° ENE daylight
22 Dec - 14:26:52 10° NW 14:33:11 41° NNE 14:37:38 10° E daylight
22 Dec - 16:48:16 10° W 16:53:06 79° N 16:57:41 10° E daylight
22 Dec - 19:08:33 10° W 19:12:57 52° NNW 19:18:53 10° ENE daylight
22 Dec - 21:29:10 10° WNW 21:33:25 20° NNW 21:39:14 10° NNE visible
